Wind_Speed
10 11 13 11 9 8 6 6 5 4 3 2 1 1 2 3 4 4 5 5 6 5 3 4 5 6 8 10 12 13 15 17 18 19 20 20 21 20 21 23 25 28 29 29 31 33 34 35 36 38 41 43 45 45 44 42 42 41 41 41 42 43 43 44 42 40 37 36 35 35 36 36 37 37 38 39 40 41 42 43 44 45 45 46 46 46
10 13 17 14 11 9 8 7 5 4 3 2 2 2 3 4 4 4 5 5 7 6 5 6 6 5 8 10 12 14 16 19 20 21 22 22 22 23 23 25 27 29 30 30 31 32 33 34 36 37 40 42 44 45 44 43 42 41 41 41 41 43 44 44 42 40 38 36 36 36 36 37 37 37 38 39 40 41 42 43 44 45 45 46 46 46
11 16 18 15 13 11 10 8 7 5 4 4 4 4 4 3 4 4 6 7 8 7 7 9 9 5 7 11 13 15 17 19 22 23 23 24 24 24 25 27 28 30 30 31 32 33 34 34 36 37 39 42 43 44 44 43 42 41 41 41 42 43 44 44 43 40 38 36 36 36 36 37 37 37 38 39 40 40 41 43 44 45 46 46 46 46
14 17 15 14 14 13 12 10 9 7 7 6 6 6 4 4 5 4 6 8 8 9 10 12 14 12 8 10 13 14 17 20 22 24 25 25 26 26 26 27 29 30 31 32 33 33 34 35 36 38 39 41 43 44 44 43 42 41 41 41 42 43 44 44 42 40 38 36 35 35 36 36 37 37 38 38 39 39 40 42 43 45 46 46 47 47
16 16 14 14 15 14 13 12 10 9 8 6 6 6 5 5 4 5 7 8 9 11 11 14 18 14 10 9 12 14 16 20 22 24 25 26 27 27 27 28 30 32 32 33 33 34 34 35 36 38 39 40 42 42 43 42 42 41 41 41 41 43 44 44 42 40 38 35 34 35 35 35 35 35 36 37 38 39 40 41 43 45 46 47 47 47
14 14 13 14 13 12 12 11 12 11 8 7 8 7 6 6 6 6 7 8 10 9 10 14 12 8 10 11 10 13 16 19 22 24 26 27 27 28 28 29 31 33 33 33 34 34 35 36 37 38 39 39 41 41 42 42 41 41 41 41 41 42 43 43 42 40 37 35 34 34 34 35 35 35 36 38 39 40 41 42 43 44 46 47 47 48
11 11 10 11 10 10 10 11 12 11 9 11 11 9 8 8 7 7 8 9 9 9 12 13 7 10 18 12 9 13 16 18 23 25 28 28 28 29 29 30 33 34 35 34 34 35 36 37 37 38 38 39 40 40 41 41 40 40 40 41 41 42 43 43 42 40 37 35 34 34 35 35 36 36 37 38 40 41 41 42 43 44 45 46 48 48
8 9 8 9 9 9 10 11 13 12 11 13 13 10 9 9 8 8 10 10 12 14 17 15 10 14 19 13 9 14 14 18 24 26 29 30 29 30 30 31 34 36 36 36 36 36 36 37 37 38 38 38 39 39 40 40 40 40 40 40 41 42 43 43 42 40 37 35 34 34 34 35 36 37 38 39 40 41 41 42 42 43 44 46 47 49
7 7 7 7 8 9 10 11 12 13 13 13 14 14 12 11 10 10 11 12 14 16 15 15 10 9 17 18 11 13 15 19 24 27 29 31 30 31 31 32 35 37 38 37 37 37 37 37 38 38 38 38 39 39 39 39 39 39 39 40 41 42 43 43 42 40 37 35 34 34 34 35 36 37 38 39 40 41 41 42 42 43 44 45 47 49
5 6 6 7 8 9 10 11 12 12 13 14 14 16 17 14 12 12 13 15 15 14 11 12 8 5 16 21 10 10 18 20 24 27 28 31 32 32 32 33 35 38 39 39 38 38 38 38 38 38 39 39 38 38 39 39 39 39 39 39 40 41 43 43 42 40 37 35 34 34 34 35 36 37 38 39 40 41 42 42 43 43 44 46 47 49
6 6 6 7 8 9 10 11 12 12 12 14 14 16 18 15 12 12 14 15 11 8 6 6 8 5 10 16 13 13 17 20 25 27 28 31 32 32 33 34 35 38 39 39 39 39 39 39 39 39 39 39 38 38 38 39 39 39 39 39 39 41 42 43 41 39 37 35 34 34 34 35 36 37 38 39 41 42 42 43 44 44 45 46 48 50
7 6 7 9 8 9 10 10 12 12 12 13 14 16 16 13 10 9 9 8 3 4 5 7 10 8 10 15 17 14 14 19 24 27 29 31 32 33 34 34 36 38 40 40 39 39 39 39 40 39 39 39 39 38 38 39 39 39 39 38 39 40 42 42 41 39 37 36 34 34 34 35 36 37 39 40 41 42 43 44 44 45 46 47 49 51
8 7 7 9 9 9 10 11 12 12 12 13 14 16 13 8 6 4 4 3 3 7 10 12 13 13 18 20 20 15 14 19 23 26 28 30 33 35 35 35 36 38 40 40 40 40 40 40 40 40 40 40 39 38 38 39 39 39 39 38 38 39 41 41 40 38 37 36 34 34 34 35 36 37 39 41 42 43 44 44 45 46 47 48 50 52
8 6 7 8 10 10 11 13 13 12 13 14 13 15 10 3 3 3 3 3 5 10 17 19 16 14 19 21 22 17 15 19 23 25 26 29 33 35 36 36 36 37 39 40 40 40 40 40 40 40 40 40 39 38 38 38 39 39 38 38 38 39 40 40 39 37 36 35 35 34 34 35 36 37 39 41 42 43 44 45 45 47 48 50 51 53
9 5 6 8 9 10 12 14 13 14 15 13 11 12 8 3 1 3 4 3 6 13 22 22 12 9 16 22 21 15 15 19 23 24 25 28 32 35 37 36 36 37 38 39 40 39 40 40 40 41 41 40 40 39 38 38 38 38 38 37 37 38 40 40 38 36 35 35 34 34 34 35 36 37 39 40 42 43 44 45 45 47 48 50 52 55
9 8 10 10 10 11 14 15 15 14 12 9 10 10 9 8 6 6 7 10 10 11 14 14 12 18 26 24 16 13 18 20 21 24 27 29 32 34 36 36 36 37 37 38 39 39 40 40 41 41 41 41 41 39 38 38 38 38 37 37 37 38 39 39 38 36 35 34 34 34 34 35 36 37 39 40 41 42 43 45 46 47 49 51 53 55
10 11 12 10 9 11 15 17 17 14 9 9 11 10 10 10 8 7 9 11 8 5 7 10 18 31 30 18 13 15 20 20 20 24 28 29 32 34 35 36 35 36 36 38 38 39 39 40 40 41 41 41 41 40 38 38 37 37 37 37 37 38 39 39 37 36 34 34 34 34 34 35 36 37 38 40 41 42 43 44 46 47 48 51 54 56
13 14 12 9 8 12 16 19 18 14 10 11 12 11 10 9 6 5 5 5 3 2 7 10 17 31 27 14 16 19 20 22 23 24 28 30 32 33 34 34 34 35 36 37 38 38 39 39 40 41 42 42 41 40 39 38 37 37 37 36 37 38 39 39 38 36 34 34 33 34 34 35 36 37 38 40 41 42 43 44 45 47 49 51 54 57
15 14 11 8 10 13 17 19 18 14 11 11 12 11 10 7 5 5 3 3 3 2 7 8 12 25 27 18 18 20 22 27 28 28 30 31 32 34 33 33 33 34 35 36 38 38 38 39 40 41 42 42 42 41 39 38 37 37 36 36 37 38 39 39 38 36 34 33 33 33 34 34 36 37 38 40 41 42 43 44 45 47 49 51 54 57
16 12 9 11 15 17 18 18 17 15 14 12 12 12 11 8 8 8 5 5 3 2 6 7 7 19 26 20 18 21 25 30 32 32 32 31 33 34 32 34 34 33 34 36 37 38 38 39 39 41 42 42 42 41 39 38 37 37 36 36 37 38 39 40 38 36 34 33 33 33 34 34 35 36 38 39 41 42 43 45 46 47 49 51 54 57
16 11 12 17 19 17 19 20 18 17 15 12 13 12 11 10 9 10 11 12 8 4 2 1 6 23 26 18 19 24 27 32 34 34 33 32 35 35 33 34 34 32 33 35 36 37 38 38 39 40 41 41 42 41 40 38 37 37 37 37 37 37 39 40 38 36 34 33 33 33 33 34 35 36 37 39 40 42 43 45 46 47 49 51 54 57
16 15 18 21 20 20 22 21 17 16 12 11 13 12 12 13 12 9 7 12 12 9 7 1 8 27 28 20 24 30 30 33 34 31 32 34 36 37 35 34 34 33 33 34 36 37 37 38 38 40 41 41 41 41 41 39 37 37 37 37 37 37 38 39 38 35 34 33 33 33 33 33 34 35 37 38 40 41 43 44 45 47 49 51 54 57
18 18 20 21 21 23 22 18 14 12 10 11 14 16 16 16 15 10 6 10 10 12 14 6 8 26 30 25 28 33 33 33 30 28 32 34 37 38 36 35 34 33 32 33 35 36 37 38 38 39 40 41 41 41 41 40 38 37 37 37 37 37 38 39 38 35 33 33 33 33 33 33 33 35 36 38 39 41 43 44 45 47 49 51 54 56
19 16 19 24 27 25 21 15 11 9 10 14 18 21 20 19 19 16 15 18 14 15 17 6 7 25 32 30 31 34 34 32 27 27 32 35 38 39 37 36 35 33 32 33 35 36 37 38 38 39 40 40 41 41 41 40 39 38 37 37 37 37 38 39 38 35 33 32 32 32 33 33 33 35 36 37 39 40 42 44 45 47 48 51 54 56
17 15 19 23 22 20 17 12 11 14 17 20 23 24 24 23 22 19 20 20 16 20 19 9 11 30 35 33 34 35 34 32 28 28 32 35 38 39 37 36 35 34 33 33 34 35 37 38 38 38 39 40 40 41 41 41 39 38 38 37 37 36 37 39 38 35 33 32 32 32 33 33 33 34 36 37 39 40 42 43 45 46 48 51 53 55
19 18 20 18 10 8 12 14 18 24 25 26 27 26 26 25 23 21 20 17 15 19 19 16 23 39 41 35 34 34 35 34 32 32 34 37 39 40 39 37 36 35 33 34 35 35 36 38 38 38 39 39 40 40 41 41 40 39 38 37 37 36 37 38 37 35 32 32 32 32 33 33 33 34 35 37 38 39 41 43 44 46 48 51 53 54
23 24 24 22 19 19 22 24 27 29 30 30 30 29 29 29 27 24 20 22 24 23 25 31 39 44 43 39 36 35 37 38 37 36 37 39 40 41 40 38 37 35 34 34 35 35 36 37 38 38 39 39 40 40 40 41 40 39 38 38 37 36 36 37 37 34 32 31 32 32 33 33 33 33 34 36 38 39 41 42 44 46 48 50 52 53
27 30 28 28 30 28 26 28 29 29 32 34 31 30 30 29 29 29 27 31 31 24 26 39 41 39 42 43 38 37 40 40 39 39 40 42 43 43 42 39 38 36 35 35 35 36 37 37 38 38 38 38 39 40 40 40 40 39 38 38 37 36 36 36 36 34 31 31 32 32 33 33 33 33 34 35 37 39 40 42 43 45 48 50 51 52
29 32 31 31 33 32 29 28 27 29 32 33 30 28 31 32 33 35 35 35 34 28 30 38 39 39 44 41 37 39 40 38 39 40 43 44 44 44 43 41 38 36 35 35 35 36 37 37 37 38 38 38 39 39 40 39 39 39 39 38 37 36 35 36 36 33 31 31 31 32 33 33 33 33 34 35 36 38 40 41 43 45 47 49 50 51
28 31 32 32 35 37 32 25 24 27 29 30 31 33 34 34 33 34 33 30 30 32 33 35 36 40 40 38 40 43 39 37 40 43 45 45 45 45 44 42 39 37 36 36 35 35 36 37 37 37 37 38 38 39 39 39 39 39 38 38 37 36 35 36 35 33 31 30 31 32 33 33 33 33 33 34 36 37 39 41 43 44 46 48 50 50
27 30 32 32 36 38 32 25 24 24 27 35 37 31 26 27 29 31 30 26 26 28 30 31 35 39 38 39 42 40 37 39 44 47 48 47 45 45 45 42 40 38 37 37 36 35 36 36 37 37 37 38 38 39 39 38 38 38 38 38 37 36 36 35 35 33 31 29 30 32 33 33 33 33 33 34 35 37 39 40 42 44 46 48 49 49
29 30 32 30 31 36 34 29 27 28 35 38 27 17 22 31 32 29 25 22 23 25 26 29 35 39 39 38 37 38 40 44 49 50 49 47 46 46 45 42 40 39 39 38 36 36 35 36 36 37 37 38 38 38 38 38 37 37 37 37 37 36 36 35 35 33 30 29 30 31 33 33 33 33 33 34 35 36 38 40 42 43 45 47 48 48
29 29 29 24 25 33 34 30 33 36 33 24 15 20 34 35 25 22 20 20 22 25 26 31 36 38 37 36 38 43 46 49 52 51 49 48 47 46 43 41 39 39 39 38 37 36 35 36 37 37 37 37 38 38 38 37 36 36 36 36 36 36 36 35 35 34 31 29 29 31 32 33 33 32 33 34 35 36 37 39 41 43 45 46 47 48
26 25 26 22 21 29 34 33 34 27 15 15 25 33 32 23 17 19 20 21 25 29 31 34 35 34 35 39 43 46 49 52 54 53 50 48 47 45 44 41 39 39 38 37 37 36 35 36 36 36 37 37 38 38 37 36 35 35 36 36 36 37 36 36 35 34 31 29 28 30 31 32 32 32 32 33 34 35 36 38 40 42 44 46 47 47
25 25 23 21 21 27 33 30 21 13 17 30 35 28 17 15 18 22 21 23 28 33 34 32 31 34 39 44 45 46 49 53 54 54 52 48 45 44 44 43 41 40 39 38 37 35 35 35 36 36 36 37 37 37 36 35 35 35 36 36 37 37 37 36 36 34 32 29 28 29 31 32 32 32 32 33 34 35 36 37 39 41 43 45 46 47
25 24 22 22 21 22 24 18 11 18 34 39 29 19 17 19 23 25 27 29 31 31 31 30 34 41 44 46 47 47 51 54 54 54 52 48 46 46 47 46 45 43 41 38 37 36 34 34 35 36 36 37 37 36 36 35 35 35 35 36 36 37 37 37 36 35 33 30 28 28 30 31 32 31 31 32 33 35 35 37 38 40 42 44 45 46
23 22 23 21 17 17 20 22 25 31 35 34 26 23 24 26 28 30 32 35 32 27 29 36 42 45 46 48 51 50 53 56 55 52 51 50 49 50 50 50 48 45 43 39 37 36 34 34 35 35 36 36 36 36 36 35 35 35 35 35 35 36 37 37 37 36 34 31 28 28 29 31 31 31 31 31 33 34 34 36 37 39 41 43 44 45
21 22 24 19 18 20 21 21 21 18 21 30 32 28 29 30 29 29 32 36 32 28 35 43 44 46 49 51 53 54 55 57 56 52 51 51 51 51 50 49 47 45 43 40 38 36 34 33 34 35 36 36 36 36 36 35 35 35 35 35 35 35 37 37 37 37 35 32 29 28 28 30 31 31 31 31 32 33 34 35 37 38 40 42 43 44
22 24 25 22 23 25 20 16 11 9 19 35 34 26 27 29 29 30 31 33 35 37 42 46 45 48 53 54 56 57 55 55 56 55 52 51 51 50 49 47 45 43 41 40 38 37 35 33 33 34 35 36 36 36 36 35 35 35 35 35 35 34 36 37 38 38 36 34 31 29 28 28 30 31 30 30 31 32 33 34 36 37 39 40 42 43
25 26 26 26 27 27 24 21 18 20 30 36 27 24 31 33 33 29 22 28 42 45 44 47 50 53 55 55 56 56 53 52 54 55 53 51 50 48 46 45 44 42 40 39 38 37 35 33 33 34 35 36 37 36 36 36 35 35 35 35 35 34 35 36 38 39 38 36 33 30 28 27 29 30 30 30 30 31 32 33 35 36 38 39 41 42
30 28 27 27 28 28 25 23 25 33 37 31 25 33 42 39 33 27 25 37 49 46 44 50 54 55 55 55 55 55 54 52 52 53 52 51 49 46 43 42 41 40 39 39 37 37 35 33 33 34 34 36 37 36 36 36 36 35 35 35 35 34 34 35 38 39 39 38 35 31 28 27 27 29 29 29 30 30 31 32 34 36 37 38 39 41
31 27 26 27 26 25 23 23 25 31 32 31 37 47 47 38 34 35 39 45 45 43 47 52 52 53 55 54 54 55 55 53 51 51 50 48 47 44 41 40 39 38 38 37 36 35 35 34 34 34 34 36 37 37 36 36 36 35 36 35 35 35 34 35 37 39 40 40 37 33 30 27 26 27 28 29 29 29 30 31 33 35 36 37 38 39
34 28 27 28 25 21 18 17 17 23 33 42 50 50 44 40 41 43 44 43 42 45 49 50 49 52 54 53 54 55 54 52 51 49 48 46 45 43 40 39 38 36 35 35 34 34 34 34 34 34 34 36 37 37 37 36 36 35 36 36 35 35 35 35 37 39 40 41 39 35 31 28 26 26 27 28 28 29 29 30 32 33 35 36 37 38
38 30 25 27 27 22 20 21 27 36 45 49 48 44 42 43 43 41 41 44 46 48 50 50 51 52 52 53 53 52 50 50 49 47 46 45 44 43 41 39 37 35 33 33 33 33 34 34 35 34 34 35 37 37 37 36 36 35 35 37 37 36 35 35 37 39 41 42 40 36 32 28 26 25 26 27 27 28 28 29 30 32 33 34 35 36
39 35 32 33 33 30 32 40 46 48 46 43 43 43 43 43 42 41 42 46 49 49 50 51 52 52 50 49 47 46 45 44 43 42 41 41 40 39 38 36 35 34 32 31 32 33 34 35 35 34 34 35 37 37 37 36 36 35 34 36 38 37 36 36 37 38 41 42 42 38 33 29 26 24 24 25 26 27 27 28 29 31 32 33 34 35
41 40 38 36 35 36 42 48 45 39 37 40 42 42 42 42 43 44 46 48 49 48 46 44 43 44 43 41 40 40 37 37 38 37 36 37 37 35 35 35 34 33 32 31 31 33 34 35 36 35 35 35 36 36 37 36 35 34 34 36 38 38 38 37 37 39 41 43 43 40 35 30 26 24 23 24 25 26 26 27 28 29 31 32 32 33
43 42 41 40 39 40 43 45 39 35 39 44 43 42 43 44 46 48 50 49 46 43 39 35 32 33 32 31 32 32 31 32 34 34 34 36 36 35 35 34 33 34 34 33 33 34 34 35 35 35 36 36 35 36 36 36 35 34 34 35 37 38 39 38 38 39 41 44 44 42 38 32 27 25 23 22 24 25 25 26 27 28 30 31 31 32
45 46 46 44 39 35 36 40 39 39 43 43 42 44 45 45 48 50 48 42 37 34 32 28 26 27 27 27 28 29 29 30 32 33 34 35 35 36 36 36 36 36 35 35 37 37 37 36 35 34 35 35 35 35 36 36 34 34 34 36 37 38 39 39 39 39 41 43 44 44 41 35 29 26 23 22 22 23 24 25 25 26 28 29 30 31
43 45 45 40 35 34 38 41 41 42 44 43 42 43 44 44 48 48 41 33 28 28 28 27 24 24 24 25 28 29 30 31 32 34 35 35 36 37 37 38 39 40 40 40 40 39 39 39 37 36 36 34 34 36 36 35 34 34 35 36 37 38 39 39 40 40 41 43 44 45 43 38 32 27 24 22 21 22 23 24 24 25 26 28 29 30
41 43 42 39 38 41 45 44 41 42 46 46 43 42 42 42 43 40 35 31 27 25 26 27 26 24 22 24 27 29 31 32 34 35 36 37 38 39 40 41 42 42 44 46 46 44 42 39 38 38 38 36 35 36 36 34 34 35 37 38 39 38 38 39 40 40 41 43 45 46 45 40 34 28 25 22 21 21 22 22 23 24 25 26 27 28
37 38 38 38 40 42 43 42 40 41 44 44 41 40 39 38 36 33 30 30 28 27 26 27 29 29 27 26 28 32 34 34 35 38 39 39 40 42 43 44 44 45 47 48 50 49 45 40 38 38 37 37 37 37 37 36 36 37 39 40 40 38 38 39 41 41 41 43 46 47 45 42 36 30 26 23 21 21 21 22 22 23 24 25 26 27
Wind_Direction
94 93 85 80 82 87 84 79 81 81 83 88 49 341 327 338 338 358 7 358 346 337 325 318 322 348 4 7 5 1 358 356 353 352 352 352 353 353 352 350 348 345 343 340 338 338 336 335 337 338 339 340 341 342 344 345 346 345 342 340 339 339 340 339 338 338 340 341 341 340 339 338 337 338 337 337 337 336 336 336 336 337 337 337 337 337
90 77 68 64 65 68 68 67 62 58 58 41 15 333 322 326 315 324 337 339 331 321 308 299 303 341 0 360 1 358 358 357 355 354 352 352 354 355 354 352 349 345 342 340 339 337 336 335 337 338 339 340 341 342 343 344 344 343 341 339 339 340 340 339 338 338 339 341 341 340 340 339 338 338 338 337 336 336 336 336 336 337 337 337 338 338
77 62 58 55 54 54 55 53 49 46 41 33 14 345 335 325 313 310 317 322 320 314 308 293 288 304 347 355 358 355 356 357 356 355 353 353 355 355 355 352 349 345 342 341 340 337 336 336 337 339 339 339 340 342 343 343 343 342 340 339 339 340 339 338 337 338 339 341 341 340 340 339 338 338 337 336 335 336 336 336 336 337 337 337 338 338
67 59 54 51 49 45 41 39 37 31 29 26 4 343 338 332 322 305 311 318 313 314 310 297 292 285 299 342 352 350 352 356 355 354 354 354 355 356 355 353 347 344 343 341 340 338 336 337 338 339 339 338 340 341 341 342 342 341 338 338 339 339 338 337 337 337 338 340 340 339 339 339 338 337 336 335 334 334 335 336 336 336 336 337 337 337
66 59 48 45 43 37 33 31 28 22 21 18 360 348 343 333 323 307 311 314 309 310 304 305 307 291 273 308 336 346 349 351 351 351 353 354 354 356 356 352 347 345 343 341 340 338 337 338 339 339 338 338 339 339 340 341 341 339 337 337 338 338 337 336 336 336 337 339 339 338 337 337 336 334 333 333 334 334 335 335 335 335 335 336 337 337
64 58 48 45 41 37 33 30 28 22 15 7 354 353 351 335 322 315 314 311 307 303 305 317 319 298 287 286 304 336 344 344 346 347 348 351 353 355 355 351 347 345 344 342 341 339 338 339 340 339 338 337 337 338 339 340 340 338 336 336 338 338 337 336 335 336 336 338 338 337 336 335 335 334 334 334 335 335 335 335 335 335 335 335 336 336
61 59 52 47 43 40 33 31 30 21 16 9 353 343 339 333 326 315 308 309 304 295 305 314 299 290 306 297 283 320 337 340 342 343 344 347 350 353 353 350 347 345 344 343 341 340 339 339 339 339 338 337 336 337 338 339 338 337 335 336 337 337 336 335 335 335 336 337 337 337 336 335 336 336 335 335 335 335 335 335 335 335 335 335 336 336
50 49 42 32 27 26 22 23 21 13 14 9 357 343 325 319 324 319 309 302 297 296 299 297 282 282 300 312 303 305 323 336 338 341 341 342 347 350 350 348 345 345 344 344 342 340 340 339 338 339 338 336 335 336 337 337 337 336 334 335 336 336 335 335 334 334 335 336 337 337 336 335 335 335 335 335 335 334 335 335 334 334 334 335 335 335
33 32 25 14 10 8 7 11 8 4 5 359 355 353 337 314 301 304 307 304 303 306 300 291 286 271 290 311 315 297 314 333 337 340 339 340 345 347 347 345 343 343 343 343 342 341 340 338 338 338 338 336 335 335 335 336 336 335 334 334 335 336 335 335 334 334 334 335 336 336 335 335 334 334 335 335 334 334 334 334 333 333 333 334 335 335
16 13 9 359 360 359 358 359 352 352 355 348 348 349 345 328 298 288 293 299 302 302 295 289 288 275 296 310 317 308 319 331 336 341 340 340 343 344 345 343 340 340 341 342 342 341 340 338 338 338 338 337 334 334 335 335 335 334 333 333 334 335 335 334 334 333 333 334 335 335 335 334 334 334 334 334 334 334 334 334 333 332 333 333 334 334
349 354 354 345 347 350 348 347 343 343 341 339 345 343 340 333 311 295 290 296 300 290 278 275 282 289 299 310 322 322 326 332 334 341 343 341 342 342 342 341 338 338 338 340 341 340 340 339 338 338 338 337 334 334 334 335 335 334 332 332 334 335 335 334 333 333 333 334 335 334 334 334 334 334 334 334 334 334 334 333 333 333 332 332 333 334
324 326 338 339 334 332 332 332 334 336 333 335 342 339 336 332 321 307 297 306 298 267 289 280 286 287 267 294 323 325 323 331 334 340 343 341 340 339 339 338 336 336 336 338 340 340 340 339 338 338 337 336 334 333 333 334 334 333 332 332 333 335 334 333 333 333 333 334 334 333 333 333 334 334 334 334 334 334 334 333 333 333 332 332 332 333
320 307 320 335 330 322 320 321 320 322 330 332 332 339 344 344 342 321 290 314 257 268 302 296 295 289 270 291 324 323 316 328 332 337 341 340 338 336 336 336 335 335 335 336 339 340 340 339 338 338 337 336 335 333 333 333 333 332 331 331 332 333 333 333 332 332 333 333 333 332 332 332 334 334 334 334 334 334 334 333 333 333 333 332 332 333
340 313 308 328 334 329 320 320 315 310 322 324 327 347 358 18 21 325 273 301 278 285 301 297 296 288 279 305 327 320 318 329 330 334 336 337 336 332 332 335 334 334 333 335 339 340 339 339 339 338 337 336 335 333 332 332 332 332 330 330 331 332 333 332 332 332 332 333 333 332 332 333 334 334 333 333 333 334 333 333 333 333 333 332 333 333
347 325 312 317 325 334 332 328 320 310 313 313 319 344 355 2 353 278 261 277 287 298 300 294 285 265 288 318 328 324 333 334 329 329 332 334 332 328 329 333 333 333 333 335 338 339 339 339 339 338 337 337 336 333 331 331 331 331 330 329 330 331 332 332 331 331 332 332 333 332 332 333 334 334 333 333 333 333 333 333 334 334 333 333 333 334
339 332 327 313 305 324 335 334 327 316 309 302 310 328 337 330 298 261 267 281 290 306 302 285 271 281 301 320 332 339 342 338 330 327 329 332 329 325 328 331 331 331 332 335 338 339 339 340 340 339 338 337 336 334 331 330 330 330 329 329 330 331 332 332 331 331 331 332 332 332 332 333 334 333 333 333 332 332 333 333 334 334 334 333 333 334
333 332 331 316 301 312 326 332 330 320 303 293 303 313 321 321 300 268 275 286 295 311 288 270 285 301 312 329 346 347 343 338 334 329 329 328 325 324 326 329 329 330 333 336 337 338 338 340 340 339 338 337 337 334 331 329 329 330 329 329 329 331 332 332 331 330 331 332 332 332 333 333 333 333 332 332 332 332 333 333 334 335 335 334 334 335
330 329 330 326 312 312 322 328 327 321 306 291 292 303 315 319 303 278 282 305 338 307 275 263 282 300 308 325 344 345 342 339 337 333 329 324 322 323 325 326 327 330 333 336 337 337 338 339 340 339 338 337 337 335 331 329 329 329 329 329 329 331 332 332 331 331 331 332 332 332 333 333 332 332 331 332 332 333 333 334 335 336 335 335 335 336
334 327 326 332 324 321 323 324 323 321 312 296 290 298 307 305 283 276 279 309 326 295 289 281 278 295 302 314 335 341 339 339 339 333 327 323 322 324 325 326 327 330 333 335 336 337 337 339 339 338 337 337 337 335 331 329 329 330 330 329 330 331 332 333 332 330 331 331 332 332 333 333 332 331 331 331 332 333 333 334 335 336 336 336 336 337
334 323 313 320 323 322 321 320 317 314 311 301 294 294 297 293 278 271 248 245 262 236 291 307 294 302 313 322 329 335 336 335 337 332 326 324 324 325 326 326 327 330 333 335 336 336 336 338 338 337 337 337 338 336 332 329 329 330 330 330 330 331 332 333 332 330 330 331 332 333 333 333 332 331 331 331 333 333 333 335 336 337 338 338 337 338
330 316 302 312 320 320 318 319 313 308 306 296 294 293 290 290 286 281 267 254 247 219 254 3 287 300 322 341 330 332 334 332 335 331 323 322 323 325 326 325 326 329 332 334 335 335 336 337 337 336 336 337 338 337 333 331 330 330 331 331 331 332 333 333 332 330 330 331 332 333 333 333 331 330 330 331 333 334 334 335 336 338 338 339 339 339
327 312 304 310 320 320 317 317 307 301 300 294 298 296 290 293 288 281 275 259 242 226 240 195 273 298 326 348 331 333 336 334 337 329 319 319 320 323 326 325 325 327 331 333 334 334 335 335 336 335 335 336 337 337 335 332 331 330 331 332 332 332 333 333 332 330 329 331 332 333 333 333 331 330 331 332 333 334 335 335 337 338 339 340 340 340
324 312 304 308 319 320 317 315 302 291 292 292 299 297 294 295 284 268 259 267 252 233 248 246 260 296 326 342 328 333 338 335 335 324 316 317 318 321 324 324 323 325 329 331 332 334 334 334 335 334 334 336 337 338 336 334 332 331 332 332 332 333 333 334 332 329 329 330 331 332 333 333 332 331 331 333 334 335 335 336 337 339 340 341 341 341
323 314 308 311 318 318 314 315 305 293 293 295 299 299 295 294 290 283 270 272 273 249 248 228 245 290 325 339 325 331 338 333 330 322 316 317 319 322 323 322 322 323 326 329 331 333 332 332 334 333 333 335 336 337 337 335 334 332 332 333 332 333 334 334 332 329 328 330 331 332 333 333 332 332 332 333 334 336 336 336 338 340 341 341 342 343
318 314 311 315 323 324 321 320 310 302 298 296 298 297 295 294 291 287 277 271 271 263 253 204 239 289 322 332 319 329 337 327 322 320 319 322 324 326 325 322 321 322 325 327 329 332 332 331 333 332 333 335 336 337 338 337 336 333 333 334 333 333 334 334 333 330 328 329 331 332 333 333 333 332 333 334 334 336 336 337 339 341 342 342 343 344
312 310 310 308 306 305 305 305 306 306 301 296 299 298 297 295 287 284 278 259 255 264 253 224 254 291 316 321 315 329 333 322 317 318 323 328 328 328 327 323 320 321 323 325 328 330 331 331 332 332 332 333 334 337 338 338 337 335 335 334 333 333 334 335 334 330 328 329 331 332 333 333 333 332 333 334 335 336 337 338 340 342 342 343 344 345
312 309 309 302 288 286 296 302 306 305 300 298 301 301 298 296 290 282 266 253 261 267 264 267 275 290 307 313 316 327 329 321 317 318 325 330 329 328 328 324 320 320 321 323 327 329 330 331 331 331 332 333 334 336 338 339 339 337 336 335 333 332 333 335 334 331 329 329 330 332 333 333 333 333 334 334 335 336 337 339 341 342 343 344 345 346
310 307 308 304 299 299 303 307 306 302 298 298 301 302 299 297 292 283 271 273 278 268 269 286 289 289 301 311 317 325 327 322 317 319 324 328 328 327 326 325 321 318 319 321 324 327 329 330 330 330 331 332 333 335 338 340 340 339 337 335 333 332 332 334 334 331 329 329 331 332 333 333 333 333 334 334 335 336 338 340 342 343 344 345 346 347
309 306 308 307 305 305 306 308 305 299 297 298 299 303 302 298 296 292 291 290 283 267 274 293 296 294 302 312 319 324 326 320 317 321 324 325 327 325 323 324 321 318 318 319 321 325 326 328 329 329 330 331 333 335 338 340 340 340 338 335 333 332 331 333 334 332 330 329 331 332 333 333 334 334 334 334 334 336 338 340 342 344 345 346 347 348
307 304 307 308 307 307 309 311 309 304 302 301 304 307 305 302 303 302 303 300 285 278 287 297 297 298 306 318 323 322 321 315 316 320 321 322 325 323 323 323 320 317 316 316 318 322 323 325 327 329 330 331 334 336 338 340 341 341 339 336 333 331 331 333 334 333 331 329 331 332 333 334 334 334 334 333 334 337 339 341 343 344 346 348 349 349
305 302 306 308 307 308 313 317 318 314 310 308 311 314 313 314 314 309 305 301 290 289 296 298 296 300 312 324 324 320 319 316 315 316 318 320 323 323 322 322 319 317 315 314 315 318 320 323 326 328 330 332 334 337 339 340 341 341 339 336 333 331 330 332 334 333 331 329 330 332 333 334 335 334 334 333 334 337 339 341 343 345 347 349 350 350
305 302 305 309 307 307 312 318 320 318 313 311 315 330 328 321 316 309 305 302 300 301 302 297 297 306 319 326 323 319 319 315 313 314 316 320 324 324 322 321 319 317 315 313 312 314 318 321 325 328 330 332 335 337 339 340 340 340 338 336 333 331 330 331 333 333 331 329 330 331 332 333 334 334 334 333 335 337 340 341 343 345 348 350 351 351
306 304 307 308 304 306 313 319 321 320 317 315 327 332 323 319 314 307 303 309 313 310 302 300 306 316 324 327 324 319 315 312 312 314 316 321 325 323 320 319 318 316 315 312 310 312 316 320 324 327 330 332 335 337 339 339 339 338 337 335 333 332 331 331 333 333 331 329 329 331 332 333 334 334 333 334 335 337 340 342 343 345 348 351 353 352
310 308 308 304 299 306 315 322 323 323 318 317 323 323 317 313 316 310 304 312 317 311 307 310 316 322 325 324 323 319 313 311 312 313 316 321 323 320 318 317 317 317 314 311 309 311 315 319 322 326 329 332 336 337 338 338 338 337 336 335 334 333 332 331 332 333 331 328 328 330 331 332 333 334 333 334 335 337 340 342 343 346 348 352 353 353
314 312 308 304 299 305 317 327 331 322 311 316 323 325 314 306 316 315 306 312 318 315 317 321 320 320 321 319 319 318 313 312 312 313 317 322 322 318 316 317 319 318 314 310 308 309 313 317 320 324 329 332 335 337 337 337 338 337 336 336 335 334 333 331 331 332 331 328 327 329 330 331 332 333 333 334 335 338 340 342 344 345 348 352 354 354
318 316 311 308 305 307 316 323 315 305 314 322 330 333 324 317 319 318 311 316 325 325 326 326 319 318 319 316 317 316 313 312 313 315 320 325 324 320 318 319 321 319 314 309 307 307 311 314 318 323 327 331 334 336 336 337 338 337 336 336 336 335 334 332 330 330 330 328 326 327 329 330 331 332 333 333 335 338 340 342 344 346 348 351 354 355
321 317 312 309 305 304 302 301 303 308 316 328 334 332 330 326 322 319 314 318 328 332 328 325 320 318 318 315 314 314 313 313 314 316 324 329 327 323 321 321 322 319 314 309 305 306 309 312 317 323 327 330 333 335 336 337 337 337 337 336 337 336 334 332 331 329 329 328 325 325 328 329 329 331 332 333 335 337 340 341 343 346 348 351 354 355
320 314 310 302 295 297 293 297 311 309 312 329 335 332 331 330 324 320 314 317 327 332 326 324 320 316 315 313 312 314 315 316 315 318 325 328 326 324 323 321 321 318 313 309 305 305 307 311 317 323 325 328 331 333 335 336 336 337 336 336 337 336 335 334 331 329 329 328 325 324 326 328 329 330 331 332 334 336 339 341 343 345 348 352 354 355
317 312 307 296 291 293 286 287 295 269 297 325 337 335 332 333 329 323 315 316 325 327 322 320 317 314 314 313 314 317 317 317 317 320 324 325 323 323 323 321 320 318 313 308 305 304 307 311 317 322 324 326 329 331 333 334 334 335 335 335 336 336 336 335 332 330 329 328 325 322 324 326 328 329 330 331 333 336 338 340 342 345 348 352 354 355
317 311 304 295 292 292 284 280 279 281 304 324 336 336 334 334 330 324 315 316 322 320 316 314 313 313 314 315 316 316 316 315 317 319 322 321 319 320 322 322 320 317 312 308 304 305 308 312 316 320 323 324 326 329 331 331 332 334 333 333 334 336 338 337 333 331 329 328 325 322 321 324 327 328 329 330 332 335 337 339 342 344 348 352 355 356
313 308 301 295 295 294 284 276 281 296 312 327 334 330 330 331 327 321 314 315 317 312 309 311 311 312 314 314 314 314 314 314 315 316 318 319 317 319 323 324 322 317 311 306 304 306 309 311 315 319 321 322 323 326 328 329 330 331 331 331 333 336 339 338 335 332 329 327 326 322 319 321 325 327 329 330 331 334 336 338 341 343 347 352 355 356
308 304 299 296 297 296 288 280 285 300 316 327 325 322 325 327 323 317 312 311 308 304 306 309 310 312 314 313 313 313 313 314 315 316 317 318 318 320 323 324 323 318 312 307 305 307 309 311 314 317 319 320 321 323 325 326 328 329 329 330 333 337 340 339 335 333 330 327 325 322 318 318 322 326 328 328 330 332 335 337 340 342 346 351 354 356
303 296 295 299 301 298 292 286 289 300 312 318 318 318 321 321 317 313 310 305 301 304 308 310 311 313 314 313 314 313 313 314 315 316 317 318 319 321 323 324 323 320 317 312 309 309 310 311 313 316 317 318 319 321 323 324 325 327 327 329 332 337 340 339 336 334 331 326 323 322 318 315 319 325 327 327 328 330 333 336 338 341 345 350 354 356
302 298 297 301 302 296 288 287 294 303 310 315 316 315 313 311 310 309 306 302 302 307 309 310 311 312 313 314 314 314 314 315 315 317 319 319 322 325 326 325 322 320 320 318 314 312 311 311 313 314 315 316 317 319 321 322 323 325 326 327 331 335 338 338 336 335 331 325 322 320 317 314 315 321 326 326 326 328 331 334 337 339 343 348 353 356
303 304 303 301 299 294 290 293 301 309 313 313 312 311 311 310 309 306 302 301 304 307 309 310 310 311 312 313 313 314 317 317 317 320 323 323 326 331 333 332 327 322 320 318 316 313 312 312 314 314 314 315 316 317 318 320 322 324 325 326 328 333 335 334 333 333 330 324 320 318 316 313 312 317 323 324 324 326 329 332 335 338 341 346 351 354
305 306 305 303 301 299 298 302 309 315 313 309 311 314 315 316 314 308 304 305 308 309 311 312 312 313 314 315 316 318 320 321 320 322 325 325 326 330 334 336 335 331 326 321 316 313 313 313 314 314 313 313 314 315 316 318 321 324 325 326 327 329 332 332 331 330 328 323 319 316 315 313 311 313 319 322 322 324 327 329 333 337 340 344 349 353
306 307 305 303 303 303 303 308 314 314 309 309 313 315 316 316 313 309 308 310 311 312 312 313 316 318 320 322 323 324 325 326 324 324 326 328 329 330 332 334 335 336 333 328 322 318 315 314 313 313 311 312 313 314 314 318 322 323 325 328 328 326 327 329 328 327 326 322 317 315 314 313 311 310 314 319 321 322 324 327 331 334 338 342 347 351
309 310 307 306 306 306 305 308 311 310 308 311 314 314 314 312 308 307 310 312 312 311 309 308 313 319 322 325 327 326 327 329 329 328 328 330 331 332 334 335 335 336 335 331 327 323 318 314 312 310 310 311 313 312 314 318 321 322 325 328 328 325 325 326 325 324 324 320 316 313 313 313 311 309 310 315 319 320 322 325 328 332 336 339 344 349
314 313 311 310 309 308 308 312 317 317 314 316 317 315 312 307 304 306 309 309 307 306 304 303 308 318 325 329 328 326 326 329 330 330 330 331 332 332 334 336 337 337 336 334 331 327 322 317 313 309 308 310 311 311 314 318 319 321 324 327 326 324 323 322 321 321 321 318 314 311 310 311 311 308 306 311 316 317 319 322 325 329 334 337 341 347
321 319 318 315 312 311 313 318 324 322 317 318 319 315 309 305 303 304 305 305 306 308 308 306 306 311 320 329 330 327 325 325 327 327 328 330 331 331 331 332 333 334 334 334 332 329 324 319 313 310 309 310 311 312 314 316 317 318 322 324 324 323 321 320 319 318 318 314 310 308 307 308 309 308 304 306 311 313 316 319 321 325 331 335 339 344
327 327 326 321 315 313 314 318 321 317 313 315 315 309 304 302 301 300 301 303 306 309 311 312 311 311 313 320 326 328 326 324 324 324 324 325 327 327 327 328 329 328 329 329 329 327 323 318 314 311 310 311 312 312 312 313 315 317 319 321 322 320 319 320 319 317 315 310 306 305 304 304 306 306 303 302 305 309 311 315 318 322 327 332 336 341
Height
3161 3161 3160 3159 3159 3159 3159 3159 3159 3158 3158 3158 3157 3157 3156 3155 3155 3154 3154 3153 3152 3151 3149 3148 3146 3144 3142 3141 3139 3138 3136 3134 3132 3130 3127 3125 3123 3120 3118 3116 3113 3111 3108 3106 3104 3101 3098 3095 3092 3088 3084 3080 3076 3073 3069 3065 3061 3057 3054 3051 3047 3043 3039 3036 3032 3028 3024 3021 3018 3015 3012 3008 3005 3001 2998 2994 2990 2987 2983 2980 2976 2973 2969 2964 2960 2955
3162 3161 3159 3160 3160 3160 3159 3159 3159 3159 3158 3157 3157 3156 3155 3155 3154 3154 3153 3153 3152 3150 3148 3147 3145 3143 3141 3140 3138 3137 3135 3133 3131 3129 3126 3124 3121 3119 3116 3114 3111 3109 3107 3104 3102 3099 3096 3093 3089 3086 3082 3078 3075 3071 3067 3063 3059 3056 3052 3049 3045 3041 3037 3033 3030 3026 3022 3018 3015 3012 3009 3006 3002 2999 2996 2992 2989 2985 2981 2977 2974 2970 2966 2962 2958 2953
3162 3160 3160 3161 3161 3160 3160 3159 3159 3159 3158 3157 3156 3156 3155 3154 3154 3153 3153 3152 3151 3149 3147 3146 3144 3142 3140 3139 3137 3135 3134 3132 3129 3127 3125 3122 3120 3117 3115 3112 3110 3108 3105 3102 3099 3096 3094 3091 3087 3084 3080 3076 3073 3069 3065 3061 3057 3053 3050 3046 3042 3038 3034 3031 3027 3023 3020 3016 3012 3009 3006 3003 3000 2997 2994 2991 2987 2983 2979 2975 2971 2967 2963 2959 2955 2951
3162 3162 3163 3162 3161 3161 3160 3159 3159 3158 3158 3157 3156 3156 3155 3154 3153 3153 3152 3151 3150 3148 3147 3145 3143 3140 3139 3137 3136 3134 3132 3130 3128 3126 3123 3121 3118 3116 3113 3111 3108 3106 3103 3100 3097 3094 3091 3089 3085 3081 3078 3074 3071 3067 3063 3059 3055 3051 3048 3044 3040 3035 3031 3028 3025 3021 3018 3014 3011 3007 3004 3001 2998 2995 2992 2990 2986 2982 2978 2974 2969 2965 2961 2957 2952 2948
3163 3164 3164 3162 3162 3161 3160 3160 3159 3158 3158 3157 3157 3156 3154 3153 3153 3152 3152 3151 3149 3148 3146 3144 3141 3137 3137 3136 3134 3133 3131 3129 3127 3124 3122 3119 3117 3114 3112 3109 3107 3104 3101 3098 3095 3092 3089 3086 3083 3079 3076 3072 3069 3065 3061 3057 3053 3049 3045 3041 3037 3033 3030 3026 3023 3019 3015 3012 3009 3005 3002 3000 2997 2994 2991 2988 2985 2981 2976 2972 2968 2963 2958 2954 2950 2945
3165 3165 3165 3164 3163 3162 3162 3160 3159 3158 3158 3157 3157 3155 3154 3153 3152 3152 3151 3150 3149 3148 3146 3145 3142 3137 3134 3134 3133 3131 3129 3127 3125 3123 3120 3118 3115 3113 3110 3107 3105 3102 3099 3096 3093 3090 3087 3084 3081 3077 3074 3070 3067 3063 3059 3055 3050 3047 3043 3039 3035 3031 3027 3024 3020 3017 3013 3010 3006 3003 3000 2997 2995 2992 2989 2985 2981 2978 2974 2970 2965 2961 2956 2952 2948 2943
3167 3167 3166 3165 3164 3163 3163 3161 3160 3159 3158 3157 3156 3155 3154 3153 3152 3151 3150 3150 3148 3147 3145 3145 3144 3138 3132 3131 3131 3129 3128 3126 3123 3121 3118 3116 3113 3111 3108 3105 3103 3100 3097 3094 3091 3088 3085 3082 3079 3075 3072 3068 3065 3061 3057 3052 3048 3044 3041 3037 3033 3029 3025 3022 3018 3015 3011 3007 3004 3001 2997 2994 2991 2989 2985 2982 2978 2975 2971 2967 2963 2959 2955 2950 2945 2941
3168 3167 3167 3166 3165 3164 3163 3161 3160 3159 3158 3157 3156 3155 3154 3152 3151 3150 3150 3149 3148 3146 3144 3143 3143 3138 3130 3128 3128 3127 3126 3124 3122 3119 3116 3114 3112 3109 3106 3103 3101 3098 3095 3092 3089 3086 3083 3080 3077 3073 3069 3066 3062 3058 3054 3050 3046 3042 3038 3034 3030 3027 3023 3019 3016 3012 3008 3005 3001 2998 2995 2992 2989 2986 2982 2979 2975 2972 2968 2965 2961 2957 2953 2948 2943 2938
3169 3168 3167 3166 3165 3164 3163 3161 3160 3159 3158 3157 3156 3154 3153 3152 3151 3150 3149 3148 3147 3145 3143 3141 3141 3139 3130 3126 3126 3124 3123 3122 3120 3118 3115 3112 3110 3107 3104 3102 3099 3096 3093 3090 3088 3085 3081 3078 3074 3071 3067 3063 3060 3056 3052 3048 3044 3040 3036 3032 3028 3024 3021 3017 3013 3010 3006 3002 2999 2995 2992 2989 2986 2983 2980 2976 2973 2969 2966 2962 2959 2955 2951 2946 2941 2936
3169 3168 3168 3166 3165 3164 3163 3161 3160 3159 3158 3157 3156 3154 3152 3151 3150 3149 3148 3147 3146 3144 3142 3140 3140 3138 3129 3122 3124 3123 3120 3119 3117 3116 3114 3110 3107 3105 3102 3100 3097 3094 3091 3088 3086 3082 3079 3075 3072 3068 3064 3061 3057 3053 3049 3045 3041 3037 3033 3030 3026 3022 3018 3014 3011 3007 3004 3000 2996 2993 2990 2987 2984 2981 2977 2974 2970 2967 2963 2960 2956 2952 2949 2944 2940 2934
3169 3168 3167 3166 3165 3164 3163 3162 3161 3160 3159 3157 3156 3154 3152 3151 3149 3148 3147 3146 3146 3143 3140 3139 3138 3139 3132 3122 3121 3121 3118 3117 3115 3113 3112 3108 3106 3103 3101 3098 3095 3092 3089 3086 3083 3080 3076 3073 3069 3065 3062 3058 3054 3050 3047 3043 3039 3035 3031 3027 3023 3019 3016 3012 3008 3005 3001 2997 2994 2991 2988 2985 2982 2978 2975 2971 2968 2964 2960 2957 2953 2949 2946 2941 2937 2932
3169 3168 3167 3166 3165 3164 3163 3162 3161 3160 3159 3157 3156 3154 3152 3150 3148 3147 3145 3145 3145 3141 3139 3138 3137 3139 3133 3121 3119 3120 3117 3115 3113 3111 3109 3106 3104 3101 3099 3097 3093 3090 3087 3084 3081 3077 3074 3070 3066 3063 3059 3055 3052 3048 3044 3040 3037 3033 3029 3025 3021 3017 3014 3010 3006 3002 2999 2995 2992 2989 2986 2983 2979 2976 2972 2968 2965 2961 2957 2954 2950 2946 2942 2938 2934 2929
3168 3168 3167 3166 3165 3164 3163 3162 3161 3160 3158 3157 3156 3155 3153 3151 3149 3148 3147 3146 3145 3141 3138 3137 3137 3135 3127 3119 3118 3118 3116 3114 3112 3109 3107 3104 3102 3099 3097 3095 3091 3088 3085 3081 3078 3075 3072 3068 3064 3061 3057 3053 3049 3045 3041 3038 3034 3030 3026 3023 3019 3015 3011 3008 3004 3000 2996 2993 2990 2987 2984 2980 2977 2973 2970 2966 2962 2958 2954 2951 2947 2943 2939 2935 2931 2926
3168 3167 3166 3166 3165 3164 3163 3162 3160 3159 3158 3157 3156 3155 3153 3153 3153 3152 3150 3147 3144 3140 3137 3137 3136 3130 3121 3117 3117 3115 3114 3113 3110 3108 3105 3102 3100 3097 3094 3092 3089 3086 3082 3079 3076 3073 3069 3066 3062 3058 3054 3050 3046 3043 3039 3035 3032 3028 3024 3020 3017 3013 3009 3005 3002 2998 2994 2991 2988 2985 2982 2978 2975 2971 2967 2963 2960 2956 2952 2948 2944 2940 2935 2931 2926 2922
3168 3166 3166 3165 3164 3163 3162 3161 3159 3158 3157 3156 3155 3155 3154 3154 3155 3153 3150 3147 3142 3139 3136 3135 3132 3125 3117 3115 3114 3113 3112 3111 3108 3106 3103 3101 3098 3095 3092 3089 3087 3083 3080 3077 3074 3071 3067 3064 3060 3056 3052 3048 3044 3040 3036 3033 3030 3026 3022 3018 3015 3011 3007 3003 2999 2996 2992 2989 2986 2983 2979 2976 2972 2969 2965 2961 2957 2953 2950 2945 2941 2937 2932 2928 2923 2918
3168 3166 3165 3164 3163 3162 3161 3160 3159 3157 3156 3155 3154 3154 3154 3153 3153 3152 3150 3147 3144 3141 3136 3131 3125 3118 3115 3114 3112 3111 3110 3108 3106 3103 3101 3099 3095 3092 3090 3087 3084 3081 3078 3075 3071 3069 3065 3061 3057 3053 3049 3045 3041 3038 3034 3031 3027 3024 3020 3016 3012 3009 3005 3001 2997 2994 2990 2987 2984 2980 2977 2974 2970 2966 2963 2959 2955 2951 2947 2943 2939 2935 2930 2925 2920 2915
3167 3165 3164 3163 3162 3161 3160 3159 3157 3156 3155 3154 3153 3153 3152 3152 3151 3150 3149 3146 3146 3143 3134 3127 3121 3114 3113 3112 3109 3110 3108 3106 3105 3102 3099 3097 3093 3090 3087 3085 3082 3079 3076 3073 3069 3066 3063 3059 3055 3051 3047 3043 3039 3035 3032 3028 3025 3021 3017 3013 3010 3006 3003 2999 2995 2991 2988 2984 2981 2978 2975 2971 2968 2965 2961 2957 2953 2949 2945 2941 2937 2932 2927 2922 2917 2912
3167 3164 3163 3162 3161 3160 3159 3157 3156 3155 3154 3153 3152 3152 3151 3151 3150 3150 3148 3146 3147 3144 3131 3124 3121 3114 3111 3111 3108 3107 3106 3104 3103 3100 3097 3094 3091 3088 3085 3083 3080 3076 3073 3070 3067 3064 3060 3056 3052 3048 3045 3041 3037 3033 3029 3026 3023 3019 3015 3011 3008 3004 3000 2996 2993 2989 2985 2982 2979 2976 2973 2970 2966 2963 2959 2955 2951 2947 2943 2939 2934 2930 2925 2920 2915 2909
3166 3163 3161 3161 3160 3159 3158 3156 3154 3153 3152 3151 3151 3151 3150 3150 3148 3148 3149 3146 3146 3144 3132 3123 3120 3114 3110 3109 3106 3105 3104 3102 3100 3097 3095 3092 3088 3086 3083 3080 3077 3074 3071 3068 3064 3061 3058 3054 3050 3046 3042 3038 3034 3031 3027 3024 3020 3017 3013 3009 3005 3002 2998 2994 2990 2987 2983 2980 2977 2974 2970 2968 2964 2961 2957 2953 2949 2945 2941 2936 2932 2928 2923 2917 2912 2906
3166 3163 3161 3160 3159 3158 3156 3154 3153 3151 3151 3150 3149 3149 3149 3148 3147 3147 3147 3146 3145 3144 3136 3126 3119 3111 3107 3107 3105 3104 3102 3099 3097 3094 3091 3089 3086 3083 3080 3077 3075 3072 3069 3066 3062 3059 3055 3051 3048 3043 3040 3036 3032 3028 3025 3021 3018 3014 3010 3007 3003 3000 2996 2992 2988 2985 2981 2977 2974 2971 2968 2965 2962 2959 2955 2951 2947 2943 2939 2934 2930 2925 2921 2915 2909 2903
3165 3163 3161 3158 3158 3157 3154 3153 3151 3149 3149 3148 3147 3148 3147 3147 3146 3145 3144 3143 3143 3142 3140 3134 3121 3108 3104 3106 3104 3102 3100 3098 3095 3091 3089 3087 3083 3081 3078 3075 3072 3069 3067 3063 3060 3057 3053 3049 3045 3041 3037 3034 3030 3026 3022 3019 3015 3012 3008 3004 3001 2997 2994 2990 2986 2983 2979 2975 2972 2969 2966 2963 2960 2957 2954 2949 2945 2941 2936 2932 2927 2923 2918 2913 2907 2901
3164 3162 3159 3157 3156 3155 3153 3151 3150 3148 3148 3147 3146 3146 3145 3145 3145 3143 3141 3139 3139 3139 3137 3136 3124 3106 3101 3104 3102 3100 3099 3096 3094 3090 3086 3084 3081 3078 3076 3073 3070 3067 3064 3061 3058 3054 3051 3047 3043 3039 3035 3031 3027 3024 3020 3016 3013 3009 3006 3002 2999 2995 2992 2988 2984 2981 2977 2973 2970 2967 2964 2961 2958 2955 2951 2947 2943 2939 2934 2930 2925 2921 2916 2911 2905 2899
3163 3160 3157 3155 3154 3153 3151 3149 3148 3147 3146 3146 3145 3144 3143 3143 3142 3142 3140 3136 3136 3136 3132 3135 3126 3104 3097 3101 3099 3097 3097 3094 3092 3088 3084 3081 3079 3076 3073 3070 3067 3065 3062 3059 3056 3052 3048 3044 3041 3037 3033 3029 3025 3021 3017 3014 3010 3007 3004 3000 2997 2993 2990 2986 2982 2979 2975 2972 2968 2965 2962 2959 2956 2952 2949 2945 2941 2937 2932 2928 2923 2919 2914 2909 2903 2897
3162 3159 3156 3152 3151 3150 3149 3148 3147 3146 3145 3144 3143 3141 3141 3140 3138 3139 3137 3134 3134 3130 3128 3133 3123 3099 3094 3100 3097 3095 3095 3092 3090 3087 3082 3080 3077 3073 3071 3067 3065 3062 3060 3057 3053 3050 3046 3042 3038 3034 3030 3026 3022 3019 3015 3011 3008 3005 3001 2998 2994 2991 2988 2984 2980 2977 2973 2970 2966 2963 2960 2956 2953 2950 2947 2943 2939 2935 2930 2926 2921 2917 2912 2907 2901 2895
3161 3159 3156 3152 3149 3146 3145 3145 3145 3144 3143 3141 3140 3139 3138 3137 3136 3135 3134 3133 3131 3123 3123 3128 3115 3095 3093 3097 3094 3094 3093 3090 3088 3085 3081 3078 3074 3071 3068 3065 3062 3060 3057 3054 3051 3047 3043 3039 3035 3031 3027 3024 3020 3016 3013 3009 3006 3002 2999 2996 2992 2989 2986 2982 2979 2975 2971 2968 2964 2961 2958 2954 2951 2948 2944 2940 2937 2933 2928 2924 2919 2914 2910 2905 2899 2893
3160 3158 3157 3155 3152 3149 3146 3143 3142 3140 3139 3137 3136 3136 3135 3134 3134 3132 3131 3130 3126 3119 3118 3117 3105 3092 3092 3094 3092 3093 3091 3086 3084 3082 3079 3076 3072 3069 3066 3062 3060 3057 3054 3052 3048 3045 3041 3037 3033 3029 3025 3021 3018 3014 3010 3007 3003 3000 2996 2993 2990 2987 2984 2980 2976 2973 2969 2966 2962 2959 2956 2952 2949 2945 2942 2938 2934 2931 2926 2922 2917 2912 2907 2902 2897 2891
3157 3155 3155 3154 3151 3150 3146 3143 3141 3139 3135 3133 3133 3132 3132 3130 3129 3129 3128 3124 3120 3117 3113 3105 3098 3093 3091 3090 3090 3090 3088 3083 3080 3077 3075 3073 3070 3067 3063 3060 3057 3054 3051 3048 3045 3042 3038 3034 3030 3026 3022 3019 3015 3012 3008 3004 3001 2997 2994 2991 2988 2985 2982 2978 2974 2970 2967 2963 2960 2957 2953 2950 2946 2943 2940 2936 2932 2928 2924 2920 2915 2910 2905 2900 2895 2889
3155 3151 3151 3150 3146 3145 3144 3142 3140 3137 3133 3130 3130 3129 3128 3127 3126 3124 3122 3118 3117 3116 3107 3098 3097 3095 3089 3088 3088 3087 3085 3081 3076 3074 3072 3069 3067 3064 3060 3057 3054 3051 3048 3045 3042 3039 3035 3031 3028 3024 3020 3016 3013 3009 3006 3002 2998 2995 2992 2988 2985 2982 2979 2976 2972 2968 2964 2961 2958 2954 2951 2948 2944 2941 2937 2934 2930 2926 2922 2918 2913 2909 2904 2898 2893 2887
3153 3148 3146 3145 3142 3140 3141 3140 3138 3135 3131 3128 3128 3127 3126 3124 3122 3119 3115 3113 3113 3111 3102 3097 3098 3093 3088 3088 3088 3085 3083 3079 3074 3072 3069 3066 3064 3060 3057 3054 3051 3048 3045 3042 3039 3036 3032 3028 3025 3021 3017 3014 3010 3007 3003 3000 2996 2992 2989 2986 2983 2980 2976 2973 2969 2965 2962 2958 2955 2952 2948 2945 2942 2939 2935 2932 2928 2924 2920 2916 2911 2907 2902 2897 2891 2885
3151 3146 3144 3142 3138 3136 3138 3138 3135 3132 3129 3126 3125 3125 3123 3120 3118 3114 3111 3110 3108 3104 3099 3097 3096 3091 3088 3088 3086 3083 3081 3076 3072 3069 3066 3064 3062 3057 3054 3051 3047 3045 3042 3039 3036 3033 3029 3026 3022 3018 3015 3011 3008 3005 3001 2998 2994 2990 2987 2983 2980 2977 2974 2970 2966 2963 2959 2956 2952 2949 2946 2943 2939 2936 2933 2929 2926 2922 2918 2913 2909 2905 2900 2895 2889 2883
3150 3146 3143 3141 3136 3132 3133 3134 3133 3131 3127 3124 3121 3121 3119 3117 3115 3111 3108 3107 3104 3101 3098 3097 3093 3089 3088 3087 3083 3079 3077 3073 3069 3066 3063 3061 3058 3055 3051 3047 3044 3041 3038 3035 3033 3029 3026 3023 3019 3015 3012 3009 3006 3002 2999 2995 2992 2988 2985 2981 2978 2974 2971 2968 2964 2960 2957 2953 2950 2947 2943 2940 2937 2934 2931 2927 2924 2920 2916 2911 2907 2903 2898 2893 2888 2882
3148 3145 3142 3141 3136 3131 3131 3131 3130 3128 3125 3120 3118 3117 3116 3114 3111 3108 3106 3104 3102 3099 3097 3095 3092 3088 3086 3085 3081 3076 3073 3070 3065 3062 3059 3057 3055 3051 3047 3044 3041 3038 3035 3032 3029 3026 3023 3019 3016 3012 3009 3006 3003 3000 2996 2993 2990 2986 2982 2979 2975 2972 2968 2965 2962 2958 2954 2951 2948 2945 2941 2938 2935 2931 2928 2925 2921 2918 2914 2909 2905 2901 2896 2892 2886 2881
3147 3144 3142 3141 3136 3131 3130 3130 3127 3124 3120 3117 3115 3115 3113 3111 3108 3106 3104 3102 3101 3098 3096 3093 3090 3087 3085 3082 3078 3073 3069 3065 3061 3058 3056 3054 3051 3047 3044 3041 3037 3034 3031 3028 3025 3022 3019 3015 3012 3009 3006 3004 3001 2997 2994 2991 2987 2984 2980 2976 2973 2969 2966 2963 2959 2956 2952 2949 2946 2943 2939 2936 2933 2929 2926 2922 2919 2916 2912 2907 2903 2898 2894 2890 2884 2879
3145 3143 3141 3140 3136 3131 3129 3129 3125 3122 3119 3116 3114 3113 3110 3108 3106 3104 3102 3101 3099 3096 3094 3091 3088 3085 3083 3079 3075 3070 3065 3060 3056 3053 3052 3051 3048 3043 3040 3037 3034 3030 3027 3024 3021 3018 3015 3012 3009 3006 3004 3001 2998 2995 2992 2988 2985 2981 2977 2974 2970 2967 2963 2960 2957 2953 2950 2947 2944 2940 2937 2934 2931 2927 2924 2920 2917 2914 2910 2906 2901 2897 2892 2888 2883 2878
3144 3142 3140 3139 3136 3131 3129 3127 3125 3122 3118 3114 3112 3110 3108 3106 3105 3102 3100 3100 3098 3094 3091 3089 3086 3083 3080 3076 3072 3068 3062 3056 3052 3048 3049 3049 3046 3040 3036 3033 3030 3026 3023 3020 3017 3014 3012 3009 3006 3003 3001 2998 2996 2992 2989 2985 2982 2978 2975 2971 2968 2964 2961 2957 2954 2951 2947 2944 2941 2938 2935 2932 2929 2926 2922 2919 2915 2912 2908 2904 2900 2895 2891 2886 2882 2876
3143 3141 3139 3137 3135 3131 3129 3129 3126 3120 3113 3111 3110 3109 3107 3105 3103 3100 3098 3097 3097 3093 3088 3085 3082 3079 3076 3072 3068 3063 3058 3052 3047 3044 3045 3045 3042 3037 3032 3029 3026 3023 3019 3016 3013 3011 3008 3006 3003 3001 2998 2995 2992 2989 2986 2982 2979 2975 2972 2969 2965 2961 2958 2955 2952 2948 2945 2942 2939 2936 2933 2930 2927 2924 2921 2917 2913 2910 2906 2902 2899 2894 2890 2885 2881 2875
3142 3140 3137 3136 3134 3131 3128 3126 3123 3116 3110 3108 3107 3107 3106 3103 3101 3099 3095 3093 3094 3092 3087 3082 3079 3075 3071 3067 3063 3059 3054 3049 3043 3041 3042 3040 3036 3032 3029 3025 3022 3019 3015 3012 3010 3007 3005 3003 3000 2998 2995 2992 2989 2986 2983 2980 2976 2973 2969 2966 2962 2959 2955 2952 2949 2946 2943 2939 2936 2933 2931 2928 2925 2922 2919 2916 2912 2908 2905 2901 2897 2893 2889 2884 2879 2875
3141 3138 3136 3134 3132 3130 3128 3124 3121 3116 3110 3106 3106 3106 3104 3102 3100 3098 3093 3089 3090 3088 3084 3080 3075 3071 3067 3062 3058 3055 3051 3046 3040 3037 3038 3036 3032 3028 3025 3022 3019 3015 3011 3009 3006 3004 3002 2999 2997 2995 2991 2988 2986 2983 2980 2977 2973 2970 2967 2963 2960 2956 2953 2949 2946 2943 2940 2937 2934 2931 2928 2925 2922 2920 2917 2914 2911 2907 2903 2900 2896 2892 2888 2883 2878 2874
3139 3137 3135 3133 3130 3128 3127 3125 3122 3117 3109 3105 3106 3105 3103 3101 3099 3096 3090 3086 3085 3084 3080 3076 3072 3067 3064 3060 3056 3052 3048 3043 3036 3033 3033 3031 3027 3024 3020 3017 3014 3010 3007 3004 3002 3000 2998 2996 2994 2991 2988 2985 2982 2980 2977 2974 2971 2968 2964 2961 2957 2954 2950 2947 2944 2940 2937 2934 2931 2928 2926 2923 2920 2918 2915 2912 2909 2906 2902 2899 2895 2891 2887 2882 2877 2872
3136 3135 3132 3130 3128 3126 3125 3124 3120 3114 3107 3106 3106 3104 3101 3099 3097 3094 3088 3082 3081 3079 3076 3072 3067 3064 3061 3057 3053 3049 3045 3041 3035 3030 3029 3026 3022 3020 3017 3013 3009 3006 3002 3000 2998 2996 2994 2993 2991 2988 2985 2982 2979 2976 2974 2971 2968 2965 2961 2958 2955 2951 2948 2944 2941 2938 2935 2932 2929 2926 2923 2921 2918 2915 2913 2910 2907 2904 2901 2897 2894 2890 2886 2881 2877 2872
3133 3132 3129 3126 3125 3124 3123 3120 3116 3110 3105 3105 3104 3102 3100 3097 3095 3092 3088 3081 3078 3075 3073 3069 3065 3061 3058 3054 3050 3045 3042 3039 3034 3029 3026 3022 3018 3016 3014 3010 3006 3002 2999 2996 2994 2993 2991 2989 2987 2985 2982 2979 2976 2973 2971 2968 2965 2962 2959 2955 2952 2948 2945 2942 2938 2935 2932 2928 2926 2923 2921 2919 2916 2913 2911 2908 2905 2902 2899 2896 2893 2889 2885 2880 2876 2871
3131 3129 3127 3124 3123 3122 3120 3117 3113 3107 3104 3104 3102 3099 3098 3096 3092 3090 3086 3080 3076 3072 3069 3067 3062 3058 3054 3051 3047 3042 3038 3035 3032 3027 3023 3019 3015 3012 3010 3007 3003 3000 2996 2993 2991 2990 2988 2986 2984 2981 2979 2976 2972 2970 2967 2964 2962 2959 2956 2952 2949 2945 2942 2939 2936 2932 2929 2926 2923 2920 2918 2915 2913 2911 2908 2906 2903 2900 2897 2894 2891 2888 2884 2879 2875 2871
3130 3127 3125 3124 3122 3120 3118 3116 3111 3105 3102 3102 3100 3097 3096 3094 3090 3085 3080 3075 3072 3069 3065 3062 3058 3054 3049 3045 3042 3039 3034 3030 3027 3023 3019 3015 3011 3008 3006 3003 3000 2996 2993 2990 2988 2986 2984 2982 2980 2978 2975 2972 2969 2966 2964 2961 2958 2956 2952 2949 2946 2942 2939 2936 2933 2929 2926 2923 2920 2917 2915 2912 2910 2908 2906 2903 2901 2898 2895 2892 2889 2886 2883 2878 2874 2870
3127 3126 3125 3124 3122 3120 3116 3113 3108 3104 3102 3101 3098 3096 3093 3090 3086 3081 3074 3069 3067 3065 3061 3056 3053 3051 3045 3040 3037 3034 3029 3025 3023 3019 3014 3011 3008 3004 3001 2999 2996 2993 2990 2987 2985 2982 2980 2978 2976 2974 2972 2969 2966 2963 2961 2958 2955 2952 2949 2945 2942 2939 2936 2933 2930 2926 2923 2920 2917 2915 2912 2910 2908 2906 2903 2901 2898 2895 2893 2890 2887 2885 2881 2877 2873 2869
3125 3125 3124 3122 3119 3118 3113 3107 3103 3102 3100 3097 3094 3092 3089 3085 3081 3076 3071 3066 3063 3060 3056 3051 3048 3046 3042 3037 3033 3030 3026 3022 3019 3015 3011 3008 3005 3002 2998 2996 2993 2990 2986 2984 2981 2979 2977 2975 2973 2971 2969 2966 2963 2960 2957 2955 2952 2949 2946 2942 2939 2936 2933 2930 2927 2924 2920 2917 2914 2911 2909 2907 2905 2903 2901 2898 2896 2893 2890 2888 2885 2883 2879 2876 2872 2868
3123 3123 3120 3117 3114 3112 3107 3102 3101 3100 3097 3093 3090 3087 3083 3079 3075 3071 3066 3062 3059 3055 3051 3047 3044 3041 3038 3034 3030 3027 3023 3019 3016 3013 3008 3005 3002 2999 2996 2994 2991 2987 2984 2981 2978 2975 2973 2971 2970 2967 2965 2963 2960 2956 2953 2951 2948 2945 2942 2939 2935 2932 2930 2927 2924 2921 2918 2914 2910 2908 2906 2904 2902 2900 2898 2896 2893 2890 2888 2886 2883 2881 2878 2874 2870 2867
3120 3119 3116 3113 3111 3107 3101 3097 3098 3095 3091 3087 3085 3081 3078 3074 3070 3065 3061 3057 3054 3051 3048 3045 3041 3038 3035 3032 3028 3024 3021 3017 3013 3009 3006 3002 2999 2996 2994 2991 2988 2985 2981 2978 2975 2973 2970 2968 2966 2964 2961 2959 2956 2953 2950 2947 2945 2941 2938 2935 2932 2929 2926 2924 2921 2918 2915 2911 2907 2904 2902 2900 2899 2897 2895 2893 2891 2888 2886 2883 2881 2878 2876 2873 2869 2866
3116 3114 3111 3108 3107 3104 3098 3095 3093 3090 3085 3083 3080 3076 3073 3069 3064 3060 3057 3053 3051 3049 3046 3043 3040 3036 3033 3030 3025 3022 3018 3015 3011 3007 3004 3001 2997 2994 2991 2988 2985 2982 2979 2976 2973 2970 2967 2965 2963 2960 2957 2955 2953 2949 2946 2943 2941 2938 2935 2932 2929 2925 2923 2920 2918 2915 2912 2908 2904 2901 2898 2896 2895 2894 2892 2890 2888 2885 2883 2881 2879 2876 2874 2871 2868 2864
3114 3110 3106 3104 3102 3098 3093 3090 3089 3084 3078 3077 3075 3072 3069 3065 3059 3056 3054 3051 3049 3046 3043 3041 3038 3034 3031 3027 3023 3019 3015 3012 3009 3005 3002 2999 2996 2992 2989 2986 2982 2979 2976 2973 2971 2968 2965 2962 2959 2956 2953 2951 2948 2945 2942 2940 2937 2934 2931 2928 2925 2922 2919 2917 2914 2912 2908 2905 2901 2898 2895 2893 2892 2890 2888 2887 2885 2883 2881 2878 2876 2874 2872 2869 2866 2863
3110 3105 3103 3100 3097 3092 3087 3085 3085 3080 3073 3070 3069 3067 3063 3060 3055 3053 3050 3048 3045 3042 3039 3036 3034 3031 3029 3026 3022 3017 3013 3010 3007 3003 3000 2997 2994 2990 2987 2983 2980 2977 2974 2971 2968 2965 2962 2959 2955 2952 2950 2947 2944 2941 2938 2936 2934 2930 2927 2924 2921 2918 2915 2913 2910 2907 2905 2901 2897 2894 2892 2890 2888 2886 2885 2884 2882 2880 2878 2876 2874 2872 2870 2867 2864 2861
3106 3102 3100 3098 3093 3088 3084 3083 3082 3078 3072 3068 3066 3063 3059 3055 3052 3049 3047 3044 3041 3038 3035 3032 3029 3026 3024 3022 3020 3016 3012 3008 3005 3000 2997 2994 2991 2987 2984 2981 2977 2974 2971 2968 2964 2961 2958 2955 2952 2948 2946 2943 2940 2937 2934 2932 2930 2927 2924 2920 2917 2914 2911 2908 2906 2903 2900 2897 2894 2890 2888 2886 2885 2883 2882 2880 2879 2877 2875 2873 2871 2869 2867 2865 2862 2859